When you browse on this site, cookies collect data to enhance your experience and personalize the content and advertising you see.
Visit our Privacy Policy to learn more. By continuing to use the site, you agree to this use of cookies and data.
  • Em Portugal
  • Lista de países
  • Para 7 dias
  • Temperatura da água
  • Mapa do tempo
  • Widgets de tempo
  • user-avatar
    Iniciar Sessão

    Previsão horária em Hnyuh

    Hoje, 25 Agosto, Domingo

    Tempo Temperatura Precipitação Vento Pressão Humidade
    00:00 +14°C° 0 mm 1 m/s 595 mmHg 57%
    01:00 +14°C° 0 mm 1 m/s 594 mmHg 57%
    02:00 +13°C° 0 mm 1 m/s 594 mmHg 57%
    03:00 +13°C° 0 mm 1 m/s 594 mmHg 58%
    04:00 +13°C° 0 mm 1 m/s 594 mmHg 58%
    05:00 +14°C° 0 mm 1 m/s 595 mmHg 58%
    06:00 +14°C° 0 mm 1 m/s 595 mmHg 59%
    07:00 +16°C° 0 mm 1 m/s 596 mmHg 52%
    08:00 +19°C° 0 mm 1 m/s 597 mmHg 45%
    09:00 +20°C° 0 mm 2 m/s 598 mmHg 38%
    10:00 +21°C° 0 mm 2 m/s 598 mmHg 37%
    11:00 +21°C° 0 mm 3 m/s 598 mmHg 37%
    12:00 +22°C° 0 mm 3 m/s 598 mmHg 36%
    13:00 +22°C° 0 mm 3 m/s 598 mmHg 37%
    14:00 +21°C° 0 mm 3 m/s 598 mmHg 39%
    15:00 +21°C° 0 mm 3 m/s 597 mmHg 40%
    16:00 +20°C° 0 mm 2 m/s 597 mmHg 44%
    17:00 +18°C° 0 mm 2 m/s 596 mmHg 49%
    18:00 +17°C° 0 mm 2 m/s 596 mmHg 54%
    19:00 +16°C° 0 mm 1 m/s 595 mmHg 53%
    20:00 +15°C° 0 mm 1 m/s 595 mmHg 53%
    21:00 +14°C° 0 mm 1 m/s 595 mmHg 53%
    22:00 +14°C° 0 mm 1 m/s 595 mmHg 54%
    23:00 +13°C° 0 mm 1 m/s 595 mmHg 55%

    Amanhã, 26 Agosto, Segunda-feira

    Tempo Temperatura Precipitação Vento Pressão Humidade
    00:00 +13°C° 0 mm 1 m/s 595 mmHg 56%
    01:00 +11°C° 0 mm 0 m/s 595 mmHg 58%
    02:00 +11°C° 0 mm 0 m/s 594 mmHg 59%
    03:00 +10°C° 0 mm 0 m/s 594 mmHg 61%
    04:00 +11°C° 0 mm 0 m/s 595 mmHg 61%
    05:00 +11°C° 0 mm 0 m/s 595 mmHg 62%
    06:00 +12°C° 0 mm 0 m/s 595 mmHg 62%
    07:00 +14°C° 0 mm 1 m/s 596 mmHg 58%
    08:00 +16°C° 0 mm 1 m/s 597 mmHg 54%
    09:00 +17°C° 0 mm 2 m/s 598 mmHg 49%
    10:00 +18°C° 0.1 mm 2 m/s 598 mmHg 51%
    11:00 +18°C° 0.1 mm 3 m/s 598 mmHg 53%
    12:00 +19°C° 0.1 mm 3 m/s 598 mmHg 54%
    13:00 +18°C° 0.4 mm 3 m/s 598 mmHg 57%
    14:00 +18°C° 0.4 mm 3 m/s 598 mmHg 59%
    15:00 +18°C° 0.4 mm 2 m/s 598 mmHg 61%
    16:00 +17°C° 0.3 mm 2 m/s 597 mmHg 67%
    17:00 +16°C° 0.3 mm 2 m/s 597 mmHg 72%
    18:00 +15°C° 0.3 mm 1 m/s 596 mmHg 78%
    19:00 +14°C° 0.1 mm 1 m/s 596 mmHg 81%
    20:00 +13°C° 0.1 mm 1 m/s 596 mmHg 83%
    21:00 +11°C° 0.1 mm 0 m/s 596 mmHg 86%
    22:00 +12°C° 0.1 mm 1 m/s 596 mmHg 88%
    23:00 +11°C° 0.1 mm 1 m/s 596 mmHg 89%

    Depois de amanhã, 27 Agosto, Terça-feira

    Tempo Temperatura Precipitação Vento Pressão Humidade
    00:00 +11°C° 0.1 mm 1 m/s 596 mmHg 91%
    01:00 +11°C° 0 mm 1 m/s 596 mmHg 89%
    02:00 +11°C° 0 mm 1 m/s 596 mmHg 86%
    03:00 +11°C° 0 mm 1 m/s 596 mmHg 84%
    04:00 +11°C° 0 mm 1 m/s 596 mmHg 81%
    05:00 +11°C° 0 mm 1 m/s 596 mmHg 78%
    06:00 +11°C° 0 mm 1 m/s 595 mmHg 75%
    07:00 +13°C° 0 mm 1 m/s 596 mmHg 68%
    08:00 +15°C° 0 mm 1 m/s 597 mmHg 61%
    09:00 +16°C° 0 mm 2 m/s 598 mmHg 55%
    10:00 +17°C° 0.1 mm 2 m/s 598 mmHg 55%
    11:00 +18°C° 0.1 mm 2 m/s 598 mmHg 55%
    12:00 +19°C° 0.1 mm 3 m/s 598 mmHg 55%
    13:00 +19°C° 0.4 mm 3 m/s 598 mmHg 56%
    14:00 +19°C° 0.4 mm 3 m/s 597 mmHg 58%
    15:00 +19°C° 0.4 mm 3 m/s 597 mmHg 59%
    16:00 +18°C° 0.3 mm 2 m/s 596 mmHg 65%
    17:00 +16°C° 0.3 mm 2 m/s 595 mmHg 71%
    18:00 +15°C° 0.3 mm 2 m/s 595 mmHg 76%
    19:00 +14°C° 0 mm 2 m/s 594 mmHg 77%
    20:00 +13°C° 0 mm 1 m/s 594 mmHg 79%
    21:00 +12°C° 0 mm 1 m/s 594 mmHg 80%
    22:00 +12°C° 0 mm 1 m/s 594 mmHg 78%
    23:00 +12°C° 0 mm 1 m/s 593 mmHg 76%

    28 Agosto, Quarta-feira

    Tempo Temperatura Precipitação Vento Pressão Humidade
    00:00 +12°C° 0 mm 1 m/s 593 mmHg 75%
    01:00 +12°C° 0 mm 1 m/s 593 mmHg 75%
    02:00 +11°C° 0 mm 1 m/s 593 mmHg 75%
    03:00 +11°C° 0 mm 1 m/s 592 mmHg 76%
    04:00 +11°C° 0 mm 1 m/s 593 mmHg 75%
    05:00 +12°C° 0 mm 1 m/s 593 mmHg 74%
    06:00 +12°C° 0 mm 1 m/s 593 mmHg 73%
    07:00 +14°C° 0 mm 1 m/s 594 mmHg 67%
    08:00 +16°C° 0 mm 1 m/s 595 mmHg 62%
    09:00 +18°C° 0 mm 2 m/s 596 mmHg 56%
    10:00 +18°C° 0.4 mm 2 m/s 596 mmHg 57%
    11:00 +19°C° 0.4 mm 3 m/s 596 mmHg 58%
    12:00 +19°C° 0.4 mm 3 m/s 596 mmHg 59%
    13:00 +19°C° 0.6 mm 3 m/s 596 mmHg 59%
    14:00 +19°C° 0.6 mm 3 m/s 596 mmHg 59%
    15:00 +19°C° 0.6 mm 3 m/s 595 mmHg 59%
    16:00 +18°C° 0.2 mm 2 m/s 595 mmHg 66%
    17:00 +17°C° 0.2 mm 2 m/s 594 mmHg 72%
    18:00 +15°C° 0.2 mm 1 m/s 594 mmHg 78%
    19:00 +14°C° 0 mm 1 m/s 594 mmHg 81%
    20:00 +13°C° 0 mm 1 m/s 594 mmHg 84%
    21:00 +12°C° 0 mm 1 m/s 594 mmHg 86%
    22:00 +12°C° 0 mm 1 m/s 593 mmHg 87%
    23:00 +11°C° 0 mm 1 m/s 593 mmHg 87%

    29 Agosto, Quinta-feira

    Tempo Temperatura Precipitação Vento Pressão Humidade
    00:00 +11°C° 0 mm 1 m/s 593 mmHg 87%
    01:00 +11°C° 0 mm 1 m/s 593 mmHg 87%
    02:00 +11°C° 0 mm 1 m/s 593 mmHg 88%
    03:00 +10°C° 0 mm 2 m/s 593 mmHg 88%
    04:00 +11°C° 0 mm 1 m/s 593 mmHg 88%
    05:00 +11°C° 0 mm 1 m/s 594 mmHg 88%
    06:00 +11°C° 0 mm 1 m/s 594 mmHg 88%
    07:00 +13°C° 0 mm 2 m/s 595 mmHg 81%
    08:00 +15°C° 0 mm 2 m/s 596 mmHg 74%
    09:00 +17°C° 0 mm 2 m/s 597 mmHg 66%
    10:00 +17°C° 0.2 mm 3 m/s 597 mmHg 67%
    11:00 +18°C° 0.2 mm 3 m/s 597 mmHg 67%
    12:00 +18°C° 0.2 mm 3 m/s 597 mmHg 67%
    13:00 +18°C° 0.3 mm 3 m/s 596 mmHg 68%
    14:00 +17°C° 0.3 mm 3 m/s 596 mmHg 70%
    15:00 +17°C° 0.3 mm 3 m/s 596 mmHg 72%
    16:00 +16°C° 0.1 mm 3 m/s 595 mmHg 76%
    17:00 +15°C° 0.1 mm 2 m/s 595 mmHg 80%
    18:00 +15°C° 0.1 mm 2 m/s 595 mmHg 84%
    19:00 +14°C° 0 mm 2 m/s 595 mmHg 86%
    20:00 +13°C° 0 mm 2 m/s 595 mmHg 87%
    21:00 +12°C° 0 mm 1 m/s 595 mmHg 89%
    22:00 +12°C° 0 mm 1 m/s 595 mmHg 89%
    23:00 +11°C° 0 mm 1 m/s 594 mmHg 89%

    30 Agosto, Sexta-feira

    Tempo Temperatura Precipitação Vento Pressão Humidade
    00:00 +11°C° 0 mm 1 m/s 594 mmHg 89%
    01:00 +11°C° 0 mm 1 m/s 594 mmHg 89%
    02:00 +11°C° 0 mm 1 m/s 594 mmHg 89%
    03:00 +10°C° 0 mm 1 m/s 594 mmHg 90%
    04:00 +10°C° 0 mm 1 m/s 594 mmHg 90%
    05:00 +11°C° 0 mm 1 m/s 594 mmHg 90%
    06:00 +11°C° 0 mm 1 m/s 594 mmHg 91%
    07:00 +12°C° 0 mm 2 m/s 594 mmHg 87%
    08:00 +13°C° 0 mm 2 m/s 595 mmHg 83%
    09:00 +14°C° 0 mm 2 m/s 596 mmHg 79%
    10:00 +15°C° 0.2 mm 2 m/s 596 mmHg 78%
    11:00 +15°C° 0.2 mm 2 m/s 596 mmHg 77%
    12:00 +16°C° 0.2 mm 3 m/s 596 mmHg 76%
    13:00 +16°C° 0.1 mm 2 m/s 596 mmHg 77%
    14:00 +15°C° 0.1 mm 2 m/s 596 mmHg 77%
    15:00 +15°C° 0.1 mm 2 m/s 596 mmHg 78%
    16:00 +14°C° 0 mm 2 m/s 595 mmHg 83%
    17:00 +13°C° 0 mm 2 m/s 595 mmHg 87%
    18:00 +12°C° 0 mm 1 m/s 594 mmHg 91%
    19:00 +12°C° 0.4 mm 1 m/s 594 mmHg 92%
    20:00 +12°C° 0.4 mm 1 m/s 594 mmHg 94%
    21:00 +11°C° 0.4 mm 1 m/s 595 mmHg 95%
    22:00 +11°C° 0 mm 1 m/s 594 mmHg 95%
    23:00 +11°C° 0 mm 1 m/s 594 mmHg 96%
    Mostrar mais